Flag for U.S.A. Weather past 2 weeks in Santa Clara, California, U.S.A.

Now
64 °F

Passing clouds.


Feels Like: 64 °F
Forecast: 60 / 78 °F
Wind: 5 mph from North

Location: San Jose International Airport

Current Time: Aug 5, 2015 at 3:35:26 AM

Latest Report: Aug 5, 2015 at 2:53 AM


Visibility: 10 mi

Pressure: 30.01 "Hg

Humidity: 75%

Dew point: 56 °F

Location of Santa ClaraLocation

Historic Weather in Santa Clara — Graph

°F

Santa Clara temperature yesterday

Maximum temperature yesterday: 75 °F (at 4:53 PM)
Minimum temperature yesterday: 58 °F (at 5:53 AM)
Average temperature yesterday: 67 °F

Past Weeks' High & Low Weather Summary

 TemperatureHumidityPressure
High93 °F (Jul 28, 2:53 PM)87% (Jul 25, 4:53 AM)30.12 "Hg (Jul 25, 4:53 AM)
Low55 °F (Jul 24, 5:53 AM)19% (Jul 28, 2:53 PM)29.80 "Hg (Jul 28, 5:53 PM)
Average69 °F64%29.95 "Hg
* Reported Jul 21 1:53 AM — Aug 5 1:53 AM, Santa Clara, Weather by CustomWeather, © 2015

Note: Actual official high and low records may vary slightly from our data, if they occured in-between our weather recording intervals... More about our weather records

Advertising

Santa Clara weather history for previous 24 hours

 ConditionsComfort  
Time TempWeatherWind HumidityBarometerVisibility
1:53 AM
Wed, Aug 5
64 °FClear.3 mph75%30.00 "Hg10 mi
12:53 AM64 °FClear.8 mph78%30.01 "Hg10 mi
11:53 PM
Tue, Aug 4
64 °FPassing clouds.6 mph73%30.01 "Hg10 mi
10:53 PM65 °FPartly cloudy.9 mph68%30.01 "Hg10 mi
9:53 PM66 °FPartly cloudy.10 mph65%30.00 "Hg10 mi
8:53 PM68 °FBroken clouds.10 mph59%29.99 "Hg10 mi
7:53 PM70 °FBroken clouds.16 mph55%29.97 "Hg10 mi
6:53 PM72 °FPartly sunny.16 mph53%29.96 "Hg10 mi
5:53 PM74 °FScattered clouds.15 mph50%29.96 "Hg10 mi
4:53 PM75 °FScattered clouds.14 mph47%29.97 "Hg10 mi
3:53 PM73 °FScattered clouds.12 mph50%29.98 "Hg10 mi
2:53 PM72 °FBroken clouds.14 mph52%30.00 "Hg10 mi
1:53 PM71 °FPartly sunny.8 mph53%29.98 "Hg10 mi
12:53 PM73 °FBroken clouds.6 mph50%29.99 "Hg10 mi
11:53 AM72 °FBroken clouds.8 mph49%30.01 "Hg10 mi
10:53 AM69 °FMostly cloudy.6 mph57%30.00 "Hg10 mi
9:53 AM68 °FBroken clouds.3 mph59%29.99 "Hg10 mi
8:53 AM66 °FScattered clouds.No wind63%29.99 "Hg10 mi
7:53 AM63 °FBroken clouds.No wind70%29.97 "Hg10 mi
6:53 AM59 °FPartly cloudy.5 mph78%29.98 "Hg10 mi
5:53 AM58 °FPartly cloudy.3 mph78%29.96 "Hg10 mi
4:53 AM60 °FClear.3 mph72%29.97 "Hg10 mi
3:53 AM60 °FClear.3 mph72%29.98 "Hg10 mi
Weather by CustomWeather, © 2015

See weather overviewHow to use our weather pages